UAL131 KEWR-RJTT

Flight info

Callsign UAL131
Flight time N/A
Altitude 29000
Route GREKI DCT JUDDS DCT MARTN DCT 45N073W/N0494F300 50N075W 55N078W 60N086W/N0495F320 64N095W 68N110W 69N120W DCT ADREW DCT 68N150W/N0494F340 DCT OME DCT ROCET R338 HEDMI M523 HIXOR/N0495F360 M523 IPGUD Y800 ESNIP Y810 AKRIT Y807 POLIX
Aircraft B77W/H-SDE1E2E3FGHIJ2J3J4J5M1RWXY/LB1D1

Departure

Time 2026-05-05 15:57
Airport Newark Liberty International Airport (KEWR)

Arrival

Time N/A
Airport Tokyo Haneda International Airport (RJTT)
Time Latitude Longitude Altitude Speed Heading
2026-05-05 15:15 40.69247 -74.17352 21 ft 0 kts 257°
2026-05-05 15:47 40.69247 -74.17351 21 ft 1 kts 257°
2026-05-05 15:47 40.69249 -74.17337 22 ft 2 kts 257°
2026-05-05 15:47 40.69254 -74.17311 25 ft 2 kts 257°
2026-05-05 15:47 40.69260 -74.17290 25 ft 2 kts 213°
2026-05-05 15:48 40.69274 -74.17278 25 ft 2 kts 210°
2026-05-05 15:48 40.69289 -74.17276 25 ft 2 kts 141°
2026-05-05 15:48 40.69298 -74.17285 26 ft 2 kts 128°
2026-05-05 15:48 40.69308 -74.17302 27 ft 1 kts 128°
2026-05-05 15:49 40.69308 -74.17303 27 ft 0 kts 128°
2026-05-05 15:53 40.69306 -74.17299 21 ft 4 kts 128°
2026-05-05 15:53 40.69258 -74.17198 26 ft 17 kts 116°
2026-05-05 15:53 40.69225 -74.17074 26 ft 11 kts 72°
2026-05-05 15:53 40.69272 -74.17010 27 ft 15 kts 33°
2026-05-05 15:54 40.69405 -74.16920 30 ft 23 kts 26°
2026-05-05 15:54 40.69555 -74.16824 26 ft 23 kts 26°
2026-05-05 15:54 40.69699 -74.16731 28 ft 23 kts 25°
2026-05-05 15:54 40.69821 -74.16656 20 ft 18 kts 25°
2026-05-05 15:55 40.69896 -74.16609 24 ft 4 kts 25°
2026-05-05 15:55 40.69923 -74.16593 22 ft 5 kts 25°
2026-05-05 15:55 40.69971 -74.16564 20 ft 8 kts 25°
2026-05-05 15:55 40.70020 -74.16535 19 ft 8 kts 24°
2026-05-05 15:56 40.70052 -74.16480 19 ft 8 kts 73°
2026-05-05 15:56 40.70045 -74.16410 22 ft 8 kts 133°
2026-05-05 15:56 40.69992 -74.16394 18 ft 9 kts 199°
2026-05-05 15:56 40.69972 -74.16406 18 ft 0 kts 206°
2026-05-05 15:57 40.69921 -74.16440 19 ft 33 kts 206°
2026-05-05 15:57 40.69464 -74.16723 31 ft 112 kts 205°
2026-05-05 15:57 40.68524 -74.17320 28 ft 187 kts 206°
2026-05-05 15:57 40.67255 -74.18138 678 ft 198 kts 206°
2026-05-05 15:58 40.65963 -74.18852 1774 ft 203 kts 195°
2026-05-05 15:58 40.64443 -74.18702 2273 ft 248 kts 158°
2026-05-05 15:58 40.63143 -74.17136 3066 ft 270 kts 123°
2026-05-05 15:58 40.62607 -74.14705 3647 ft 288 kts 91°
2026-05-05 15:59 40.62671 -74.13498 3872 ft 295 kts 77°
2026-05-05 15:59 40.62982 -74.12184 4142 ft 298 kts 63°
2026-05-05 15:59 40.63883 -74.10346 4591 ft 301 kts 43°
2026-05-05 15:59 40.65563 -74.08626 5073 ft 302 kts 31°
2026-05-05 16:00 40.67327 -74.07091 5627 ft 309 kts 31°
2026-05-05 16:00 40.69146 -74.05503 6278 ft 312 kts 32°
2026-05-05 16:00 40.70938 -74.03911 6884 ft 317 kts 32°
2026-05-05 16:00 40.72749 -74.02294 7515 ft 318 kts 31°
2026-05-05 16:01 40.74609 -74.00619 8011 ft 325 kts 32°
2026-05-05 16:01 40.76487 -73.98905 8609 ft 329 kts 32°
2026-05-05 16:01 40.78379 -73.97160 9196 ft 333 kts 32°
2026-05-05 16:01 40.80303 -73.95378 9805 ft 336 kts 32°
2026-05-05 16:02 40.82216 -73.93603 10318 ft 341 kts 32°
2026-05-05 16:02 40.84239 -73.91725 10478 ft 361 kts 32°
2026-05-05 16:02 40.86294 -73.89812 10657 ft 379 kts 32°
2026-05-05 16:02 40.88526 -73.87731 10821 ft 398 kts 32°
2026-05-05 16:03 40.90798 -73.85605 11194 ft 409 kts 32°
2026-05-05 16:03 40.93145 -73.83402 11783 ft 415 kts 32°
2026-05-05 16:03 40.95524 -73.81164 12466 ft 418 kts 31°
2026-05-05 16:03 40.97894 -73.78933 13135 ft 421 kts 31°
2026-05-05 16:04 41.00281 -73.76689 13881 ft 422 kts 31°
2026-05-05 16:04 41.02608 -73.74502 14505 ft 425 kts 31°
2026-05-05 16:04 41.05027 -73.72221 15125 ft 427 kts 31°
2026-05-05 16:04 41.07464 -73.69921 15796 ft 429 kts 31°
2026-05-05 16:05 41.09903 -73.67621 16429 ft 431 kts 31°
2026-05-05 16:05 41.12345 -73.65314 17038 ft 434 kts 31°
2026-05-05 16:05 41.14849 -73.62948 17644 ft 437 kts 32°
2026-05-05 16:05 41.17321 -73.60611 18258 ft 439 kts 32°
2026-05-05 16:06 41.19803 -73.58262 18759 ft 442 kts 32°
2026-05-05 16:06 41.22317 -73.55879 19261 ft 445 kts 32°
2026-05-05 16:06 41.24869 -73.53458 19759 ft 448 kts 32°
2026-05-05 16:06 41.27395 -73.51059 20291 ft 450 kts 32°
2026-05-05 16:07 41.29958 -73.48623 20812 ft 452 kts 32°
2026-05-05 16:07 41.32546 -73.46160 21317 ft 455 kts 32°
2026-05-05 16:07 41.35101 -73.43726 21811 ft 457 kts 32°
2026-05-05 16:07 41.37699 -73.41249 22323 ft 459 kts 33°
2026-05-05 16:08 41.40319 -73.38748 22824 ft 461 kts 33°
2026-05-05 16:08 41.42930 -73.36253 23324 ft 464 kts 33°
2026-05-05 16:08 41.45605 -73.33858 23710 ft 464 kts 26°
2026-05-05 16:08 41.48610 -73.32159 24057 ft 461 kts 12°
2026-05-05 16:09 41.51763 -73.31398 24439 ft 459 kts
2026-05-05 16:09 41.54951 -73.31289 24793 ft 458 kts 356°
2026-05-05 16:09 41.58126 -73.31258 25115 ft 462 kts 358°
2026-05-05 16:09 41.61341 -73.31150 25445 ft 466 kts 359°
2026-05-05 16:10 41.64610 -73.31009 25786 ft 468 kts 359°
2026-05-05 16:10 41.67864 -73.30860 26116 ft 471 kts 359°
2026-05-05 16:10 41.71191 -73.30710 26430 ft 474 kts 359°
2026-05-05 16:10 41.74499 -73.30563 26761 ft 476 kts 359°
2026-05-05 16:11 41.77802 -73.30421 27062 ft 479 kts 359°
2026-05-05 16:11 41.87900 -73.29994 27954 ft 486 kts 359°
2026-05-05 16:12 41.91325 -73.29850 28243 ft 488 kts 359°
2026-05-05 16:12 41.98152 -73.29563 28758 ft 493 kts 359°
2026-05-05 16:13 42.08449 -73.29125 29506 ft 498 kts 359°
2026-05-05 16:13 42.11905 -73.28978 29717 ft 500 kts 359°
2026-05-05 16:13 42.14254 -73.28878 29786 ft 502 kts 359°
2026-05-05 16:14 42.28397 -73.28278 29863 ft 511 kts 359°
2026-05-05 16:15 42.42707 -73.27663 29866 ft 516 kts 359°
2026-05-05 16:16 42.56953 -73.27050 29857 ft 512 kts 359°
2026-05-05 16:17 42.67640 -73.26135 29833 ft 514 kts
2026-05-05 16:18 42.78324 -73.24843 29825 ft 513 kts
2026-05-05 16:19 42.89007 -73.23660 29824 ft 513 kts
2026-05-05 16:19 42.99658 -73.22513 29838 ft 512 kts
2026-05-05 16:20 43.13831 -73.20973 29816 ft 511 kts
2026-05-05 16:22 43.31545 -73.19032 29786 ft 510 kts
2026-05-05 16:23 43.45718 -73.17472 29792 ft 508 kts
2026-05-05 16:23 43.56256 -73.16307 29787 ft 507 kts
2026-05-05 16:24 43.63270 -73.15530 29774 ft 505 kts 360°
2026-05-05 16:25 43.73788 -73.14361 29772 ft 505 kts 360°
2026-05-05 16:25 43.80831 -73.13578 29668 ft 508 kts 360°
2026-05-05 16:25 43.84378 -73.13183 29724 ft 511 kts 360°
2026-05-05 16:26 43.98716 -73.11580 29755 ft 524 kts 360°
2026-05-05 16:27 44.06035 -73.10757 29747 ft 529 kts 360°
2026-05-05 16:27 44.13433 -73.09922 29742 ft 533 kts 359°
2026-05-05 16:28 44.20847 -73.09083 29727 ft 535 kts 359°
2026-05-05 16:28 44.28270 -73.08239 29713 ft 534 kts 359°
2026-05-05 16:29 44.35655 -73.07399 29707 ft 533 kts 359°
2026-05-05 16:29 44.43079 -73.06554 29706 ft 534 kts 359°
2026-05-05 16:30 44.50489 -73.05710 29711 ft 535 kts 359°
2026-05-05 16:30 44.57895 -73.04863 29717 ft 537 kts 359°
2026-05-05 16:31 44.65349 -73.04007 29712 ft 537 kts 359°
2026-05-05 16:31 44.72855 -73.03142 29674 ft 536 kts 359°
2026-05-05 16:32 44.80258 -73.02289 29682 ft 537 kts 359°
2026-05-05 16:32 44.87708 -73.01427 29664 ft 537 kts 358°
2026-05-05 16:33 44.95190 -73.00595 29667 ft 536 kts 356°
2026-05-05 16:33 45.02538 -73.01121 29690 ft 525 kts 345°
2026-05-05 16:34 45.09590 -73.03363 29678 ft 518 kts 338°
2026-05-05 16:34 45.16577 -73.06009 29665 ft 519 kts 338°
2026-05-05 16:35 45.23532 -73.08581 29661 ft 520 kts 338°
2026-05-05 16:35 45.30533 -73.11145 29645 ft 520 kts 338°
2026-05-05 16:36 45.37582 -73.13729 29637 ft 521 kts 338°
2026-05-05 16:36 45.44616 -73.16318 29630 ft 522 kts 338°
2026-05-05 16:37 45.51677 -73.18925 29625 ft 522 kts 338°
2026-05-05 16:37 45.58723 -73.21533 29620 ft 523 kts 338°
2026-05-05 16:38 45.65747 -73.24140 29624 ft 523 kts 338°
2026-05-05 16:38 45.72776 -73.26756 29627 ft 523 kts 338°
2026-05-05 16:39 45.76265 -73.28058 30221 ft 509 kts 340°
2026-05-05 16:39 45.79610 -73.29290 30710 ft 479 kts 340°
2026-05-05 16:39 45.82790 -73.30461 30400 ft 468 kts 340°
2026-05-05 16:39 45.85920 -73.31628 30196 ft 460 kts 340°
2026-05-05 16:40 45.89018 -73.32796 29949 ft 462 kts 340°
2026-05-05 16:40 45.92125 -73.33973 29808 ft 465 kts 340°
2026-05-05 16:40 45.98419 -73.36357 29696 ft 467 kts 340°
2026-05-05 16:41 46.04735 -73.38738 29609 ft 465 kts 340°
2026-05-05 16:41 46.10960 -73.41086 29619 ft 464 kts 340°
2026-05-05 16:42 46.17237 -73.43460 29602 ft 463 kts 340°
2026-05-05 16:42 46.23463 -73.45821 29611 ft 462 kts 340°
2026-05-05 16:43 46.29680 -73.48186 29599 ft 462 kts 340°
2026-05-05 16:43 46.35853 -73.50538 29594 ft 462 kts 340°
2026-05-05 16:44 46.41037 -73.52517 29591 ft 459 kts 340°
2026-05-05 16:44 46.47227 -73.54885 29602 ft 458 kts 340°
2026-05-05 16:45 46.53393 -73.57251 29588 ft 458 kts 340°
2026-05-05 16:45 46.59554 -73.59621 29598 ft 458 kts 340°
2026-05-05 16:46 46.62624 -73.60802 29048 ft 458 kts 334°
2026-05-05 16:46 46.65744 -73.61999 29249 ft 458 kts 335°
2026-05-05 16:46 46.68814 -73.63186 29430 ft 461 kts 335°
2026-05-05 16:46 46.71949 -73.64406 29515 ft 466 kts 335°
2026-05-05 16:47 46.78255 -73.66864 29593 ft 476 kts 335°
2026-05-05 16:47 46.84723 -73.69384 29576 ft 488 kts 335°
2026-05-05 16:48 46.91385 -73.71978 29592 ft 497 kts 335°
2026-05-05 16:48 46.98090 -73.74590 29584 ft 506 kts 335°
2026-05-05 16:49 47.05001 -73.77289 29581 ft 513 kts 335°
2026-05-05 16:49 47.11886 -73.79986 29576 ft 519 kts 335°
2026-05-05 16:50 47.18913 -73.82748 29574 ft 523 kts 335°
2026-05-05 16:50 47.25977 -73.85531 29573 ft 525 kts 335°
2026-05-05 16:51 47.33033 -73.88318 29561 ft 525 kts 335°
2026-05-05 16:51 47.40063 -73.91100 29559 ft 523 kts 335°
2026-05-05 16:52 47.47114 -73.93905 29562 ft 523 kts 335°
2026-05-05 16:52 47.54160 -73.96719 29559 ft 524 kts 335°
2026-05-05 16:53 47.61214 -73.99542 29561 ft 525 kts 335°
2026-05-05 16:53 47.68252 -74.02364 29548 ft 526 kts 335°
2026-05-05 16:54 47.75303 -74.05200 29556 ft 527 kts 335°
2026-05-05 16:54 47.82409 -74.08065 29555 ft 528 kts 335°
2026-05-05 16:55 47.89504 -74.10937 29561 ft 529 kts 335°
2026-05-05 16:55 47.96630 -74.13829 29562 ft 531 kts 335°
2026-05-05 16:56 48.03767 -74.16733 29546 ft 533 kts 335°
2026-05-05 16:56 48.10917 -74.19648 29551 ft 533 kts 335°
2026-05-05 16:57 48.18085 -74.22578 29551 ft 533 kts 335°
2026-05-05 16:57 48.25249 -74.25516 29550 ft 532 kts 334°
2026-05-05 16:58 48.32395 -74.28458 29551 ft 533 kts 334°
2026-05-05 16:58 48.39564 -74.31420 29556 ft 534 kts 334°
2026-05-05 16:59 48.46694 -74.34372 29544 ft 535 kts 334°
2026-05-05 16:59 48.53871 -74.37350 29542 ft 535 kts 334°
2026-05-05 17:00 48.61111 -74.40365 29537 ft 536 kts 334°
2026-05-05 17:00 48.68272 -74.43354 29525 ft 535 kts 334°
2026-05-05 17:01 48.75455 -74.46360 29529 ft 535 kts 334°
2026-05-05 17:01 48.82635 -74.49379 29529 ft 535 kts 334°
2026-05-05 17:02 48.89827 -74.52411 29527 ft 536 kts 334°
2026-05-05 17:02 48.96998 -74.55441 29527 ft 536 kts 334°
2026-05-05 17:03 49.04203 -74.58494 29513 ft 536 kts 333°
2026-05-05 17:03 49.11379 -74.61545 29510 ft 536 kts 333°
2026-05-05 17:04 49.18570 -74.64613 29496 ft 537 kts 333°
2026-05-05 17:04 49.25769 -74.67693 29500 ft 538 kts 333°
2026-05-05 17:05 49.32998 -74.70796 29498 ft 540 kts 333°
2026-05-05 17:05 49.40240 -74.73912 29503 ft 542 kts 333°
2026-05-05 17:06 49.47502 -74.77048 29499 ft 543 kts 333°
2026-05-05 17:06 49.54776 -74.80197 29497 ft 545 kts 333°
2026-05-05 17:07 49.62099 -74.83378 29491 ft 547 kts 333°
2026-05-05 17:07 49.69451 -74.86581 29483 ft 548 kts 333°
2026-05-05 17:08 49.76787 -74.89786 29474 ft 548 kts 333°
2026-05-05 17:08 49.84153 -74.93015 29482 ft 549 kts 333°
2026-05-05 17:09 49.91498 -74.96247 29484 ft 549 kts 333°
2026-05-05 17:09 49.98833 -74.99483 29503 ft 551 kts 334°
2026-05-05 17:10 50.06100 -75.03056 29495 ft 547 kts 330°
2026-05-05 17:10 50.13289 -75.06976 29496 ft 547 kts 330°
2026-05-05 17:11 50.20466 -75.10921 29483 ft 547 kts 330°
2026-05-05 17:11 50.27439 -75.14702 29487 ft 547 kts 331°
2026-05-05 17:12 50.34623 -75.18575 29489 ft 546 kts 331°
2026-05-05 17:12 50.41812 -75.22457 29493 ft 546 kts 332°
2026-05-05 17:13 50.49002 -75.26359 29486 ft 546 kts 332°
2026-05-05 17:13 50.56181 -75.30269 29487 ft 545 kts 332°
2026-05-05 17:14 50.63307 -75.34164 29475 ft 544 kts 332°
2026-05-05 17:14 50.70402 -75.38053 29478 ft 543 kts 333°
2026-05-05 17:15 50.77546 -75.41982 29474 ft 542 kts 333°
2026-05-05 17:15 50.84655 -75.45904 29474 ft 540 kts 333°
2026-05-05 17:16 50.91794 -75.49857 29457 ft 539 kts 333°
2026-05-05 17:16 50.98842 -75.53773 29468 ft 539 kts 334°
2026-05-05 17:17 51.05920 -75.57717 29454 ft 538 kts 334°
2026-05-05 17:17 51.12958 -75.61650 29449 ft 536 kts 334°
2026-05-05 17:18 51.19974 -75.65584 29447 ft 534 kts 335°
2026-05-05 17:18 51.25816 -75.68871 29446 ft 533 kts 335°
2026-05-05 17:19 51.32795 -75.72807 29441 ft 531 kts 335°
2026-05-05 17:19 51.39743 -75.76739 29438 ft 530 kts 335°
2026-05-05 17:20 51.46683 -75.80680 29426 ft 528 kts 336°
2026-05-05 17:20 51.53606 -75.84623 29434 ft 527 kts 336°
2026-05-05 17:21 51.60545 -75.88590 29427 ft 526 kts 336°
2026-05-05 17:22 51.70860 -75.94508 29425 ft 524 kts 336°
2026-05-05 17:22 51.77738 -75.98470 29419 ft 524 kts 337°
2026-05-05 17:23 51.84578 -76.02424 29420 ft 523 kts 337°
2026-05-05 17:23 51.91414 -76.06388 29421 ft 522 kts 337°
2026-05-05 17:24 51.98259 -76.10370 29408 ft 521 kts 337°
2026-05-05 17:24 52.05087 -76.14354 29414 ft 520 kts 337°
2026-05-05 17:25 52.11884 -76.18334 29411 ft 519 kts 337°
2026-05-05 17:25 52.18685 -76.22330 29420 ft 519 kts 338°
2026-05-05 17:26 52.25460 -76.26322 29422 ft 518 kts 338°
2026-05-05 17:26 52.32237 -76.30329 29415 ft 518 kts 338°
2026-05-05 17:27 52.39017 -76.34351 29418 ft 518 kts 338°
2026-05-05 17:27 52.45806 -76.38392 29416 ft 518 kts 338°
2026-05-05 17:28 52.52578 -76.42436 29418 ft 518 kts 338°
2026-05-05 17:28 52.59338 -76.46485 29409 ft 517 kts 338°
2026-05-05 17:29 52.66088 -76.50542 29412 ft 516 kts 338°
2026-05-05 17:29 52.72831 -76.54608 29407 ft 516 kts 338°
2026-05-05 17:30 52.79608 -76.58708 29407 ft 517 kts 338°
2026-05-05 17:30 52.86371 -76.62814 29406 ft 517 kts 338°
2026-05-05 17:31 52.93106 -76.66915 29403 ft 517 kts 338°
2026-05-05 17:31 52.99874 -76.71051 29408 ft 517 kts 338°
2026-05-05 17:32 53.06645 -76.75204 29409 ft 518 kts 338°
2026-05-05 17:32 53.13361 -76.79335 29404 ft 518 kts 338°
2026-05-05 17:33 53.20151 -76.83524 29400 ft 518 kts 338°
2026-05-05 17:33 53.26900 -76.87705 29405 ft 519 kts 338°
2026-05-05 17:34 53.33701 -76.91933 29400 ft 519 kts 338°
2026-05-05 17:34 53.40472 -76.96155 29394 ft 520 kts 338°
2026-05-05 17:35 53.47258 -77.00400 29396 ft 520 kts 338°
2026-05-05 17:35 53.53987 -77.04625 29392 ft 521 kts 338°
2026-05-05 17:36 53.60832 -77.08938 29394 ft 521 kts 338°
2026-05-05 17:36 53.67572 -77.13198 29392 ft 520 kts 338°
2026-05-05 17:37 53.74355 -77.17499 29385 ft 521 kts 339°
2026-05-05 17:37 53.81127 -77.21811 29385 ft 521 kts 339°
2026-05-05 17:38 53.87941 -77.26163 29381 ft 521 kts 339°
2026-05-05 17:38 53.94711 -77.30502 29374 ft 521 kts 339°
2026-05-05 17:39 54.01494 -77.34866 29373 ft 520 kts 339°
2026-05-05 17:39 54.08266 -77.39236 29372 ft 519 kts 339°
2026-05-05 17:40 54.15031 -77.43618 29373 ft 520 kts 340°
2026-05-05 17:40 54.21808 -77.48023 29366 ft 521 kts 340°
2026-05-05 17:41 54.28588 -77.52445 29359 ft 522 kts 340°
2026-05-05 17:41 54.35383 -77.56893 29363 ft 522 kts 340°
2026-05-05 17:42 54.42148 -77.61337 29347 ft 522 kts 340°
2026-05-05 17:42 54.48976 -77.65839 29347 ft 523 kts 340°
2026-05-05 17:43 54.55752 -77.70322 29345 ft 524 kts 341°
2026-05-05 17:43 54.62570 -77.74849 29355 ft 524 kts 341°
2026-05-05 17:44 54.69391 -77.79395 29342 ft 524 kts 341°
2026-05-05 17:44 54.76207 -77.83954 29348 ft 524 kts 341°
2026-05-05 17:45 54.82957 -77.88485 29346 ft 525 kts 341°
2026-05-05 17:45 54.89780 -77.93082 29342 ft 524 kts 341°
2026-05-05 17:46 54.96577 -77.97716 29352 ft 525 kts 339°
2026-05-05 17:46 55.03013 -78.03817 29344 ft 529 kts 327°
2026-05-05 17:47 55.08866 -78.11682 29341 ft 530 kts 324°
2026-05-05 17:47 55.14675 -78.19610 29348 ft 530 kts 324°
2026-05-05 17:48 55.20533 -78.27536 29346 ft 530 kts 325°
2026-05-05 17:48 55.26345 -78.35385 29350 ft 530 kts 325°
2026-05-05 17:49 55.32176 -78.43286 29353 ft 531 kts 325°
2026-05-05 17:49 55.38014 -78.51233 29361 ft 531 kts 325°
2026-05-05 17:50 55.43845 -78.59204 29367 ft 531 kts 325°
2026-05-05 17:50 55.49688 -78.67222 29362 ft 531 kts 325°
2026-05-05 17:51 55.55536 -78.75278 29374 ft 531 kts 325°
2026-05-05 17:51 55.61372 -78.83350 29380 ft 531 kts 324°
2026-05-05 17:52 55.67183 -78.91419 29374 ft 531 kts 324°
2026-05-05 17:52 55.72946 -78.99451 29385 ft 530 kts 324°
2026-05-05 17:53 55.77778 -79.06210 29386 ft 530 kts 324°
2026-05-05 17:53 55.83567 -79.14335 29389 ft 530 kts 324°
2026-05-05 17:54 55.89386 -79.22536 29393 ft 530 kts 324°
2026-05-05 17:54 55.95120 -79.30648 29398 ft 529 kts 324°
2026-05-05 17:55 56.00913 -79.38876 29407 ft 528 kts 324°
2026-05-05 17:55 56.06618 -79.47010 29409 ft 527 kts 323°
2026-05-05 17:56 56.12352 -79.55218 29410 ft 527 kts 323°
2026-05-05 17:56 56.18080 -79.63451 29408 ft 526 kts 323°
2026-05-05 17:57 56.23754 -79.71637 29422 ft 525 kts 323°
2026-05-05 17:57 56.29487 -79.79940 29422 ft 525 kts 323°
2026-05-05 17:58 56.35135 -79.88153 29431 ft 525 kts 323°
2026-05-05 17:58 56.40812 -79.96442 29437 ft 525 kts 323°
2026-05-05 17:59 56.46519 -80.04806 29441 ft 525 kts 323°
2026-05-05 17:59 56.52144 -80.13083 29447 ft 525 kts 323°
2026-05-05 18:00 56.57811 -80.21457 29448 ft 525 kts 322°
2026-05-05 18:00 56.63473 -80.29854 29456 ft 525 kts 322°
2026-05-05 18:01 56.69144 -80.38301 29462 ft 525 kts 322°
2026-05-05 18:01 56.74798 -80.46755 29471 ft 526 kts 322°
2026-05-05 18:02 56.80416 -80.55188 29474 ft 525 kts 322°
2026-05-05 18:02 56.86077 -80.63722 29480 ft 525 kts 322°
2026-05-05 18:03 56.91727 -80.72273 29483 ft 525 kts 322°
2026-05-05 18:03 56.97299 -80.80740 29501 ft 525 kts 322°
2026-05-05 18:04 57.02943 -80.89351 29499 ft 526 kts 322°
2026-05-05 18:04 57.08548 -80.97937 29486 ft 526 kts 322°
2026-05-05 18:05 57.14179 -81.06599 29507 ft 526 kts 322°
2026-05-05 18:05 57.19810 -81.15297 29502 ft 527 kts 322°
2026-05-05 18:06 57.25412 -81.23986 29522 ft 526 kts 322°
2026-05-05 18:06 57.31010 -81.32704 29529 ft 527 kts 322°
2026-05-05 18:07 57.36620 -81.41476 29527 ft 527 kts 322°
2026-05-05 18:07 57.42204 -81.50244 29533 ft 527 kts 322°
2026-05-05 18:08 57.47815 -81.59091 29548 ft 527 kts 322°
2026-05-05 18:08 57.53404 -81.67942 29549 ft 527 kts 322°
2026-05-05 18:09 57.58980 -81.76808 29551 ft 527 kts 322°
2026-05-05 18:09 57.64541 -81.85686 29560 ft 527 kts 322°
2026-05-05 18:10 57.70089 -81.94582 29558 ft 528 kts 321°
2026-05-05 18:10 57.75665 -82.03560 29567 ft 527 kts 321°
2026-05-05 18:11 57.81204 -82.12516 29578 ft 528 kts 321°
2026-05-05 18:11 57.86790 -82.21586 29580 ft 528 kts 321°
2026-05-05 18:12 57.92333 -82.30624 29583 ft 527 kts 321°
2026-05-05 18:12 57.97871 -82.39693 29593 ft 527 kts 321°
2026-05-05 18:13 58.03382 -82.48758 29602 ft 527 kts 321°
2026-05-05 18:13 58.08935 -82.57928 29609 ft 528 kts 321°
2026-05-05 18:14 58.14451 -82.67078 29890 ft 529 kts 321°
2026-05-05 18:14 58.17215 -82.71679 30102 ft 528 kts 321°
2026-05-05 18:14 58.19986 -82.76300 30312 ft 528 kts 321°
2026-05-05 18:14 58.22757 -82.80930 30477 ft 528 kts 320°
2026-05-05 18:15 58.25471 -82.85477 30657 ft 528 kts 320°
2026-05-05 18:15 58.28219 -82.90090 30859 ft 527 kts 320°
2026-05-05 18:15 58.31004 -82.94774 31063 ft 527 kts 320°
2026-05-05 18:15 58.33707 -82.99331 31250 ft 526 kts 320°
2026-05-05 18:16 58.36456 -83.03974 31461 ft 525 kts 320°
2026-05-05 18:16 58.39179 -83.08585 31567 ft 525 kts 320°
2026-05-05 18:16 58.41901 -83.13203 31609 ft 525 kts 320°
2026-05-05 18:17 58.47389 -83.22545 31639 ft 524 kts 320°
2026-05-05 18:17 58.52807 -83.31807 31664 ft 524 kts 320°
2026-05-05 18:18 58.58235 -83.41129 31666 ft 523 kts 320°
2026-05-05 18:18 58.63650 -83.50466 31648 ft 523 kts 319°
2026-05-05 18:19 58.69056 -83.59830 31666 ft 523 kts 319°
2026-05-05 18:19 58.74467 -83.69242 31673 ft 523 kts 319°
2026-05-05 18:20 58.79859 -83.78664 31676 ft 523 kts 319°
2026-05-05 18:20 58.85218 -83.88069 31685 ft 523 kts 319°
2026-05-05 18:21 58.90636 -83.97619 31680 ft 523 kts 319°
2026-05-05 18:21 58.96011 -84.07135 31692 ft 524 kts 319°
2026-05-05 18:22 59.01383 -84.16687 31694 ft 524 kts 319°
2026-05-05 18:22 59.06712 -84.26206 31708 ft 524 kts 318°
2026-05-05 18:23 59.12112 -84.35895 31708 ft 524 kts 318°
2026-05-05 18:23 59.17454 -84.45522 31715 ft 524 kts 318°
2026-05-05 18:24 59.22773 -84.55149 31717 ft 525 kts 318°
2026-05-05 18:24 59.28142 -84.64914 31725 ft 525 kts 317°
2026-05-05 18:25 59.33493 -84.74687 31732 ft 525 kts 317°
2026-05-05 18:25 59.38829 -84.84478 31734 ft 525 kts 317°
2026-05-05 18:26 59.44156 -84.94297 31740 ft 525 kts 317°
2026-05-05 18:26 59.49504 -85.04198 31744 ft 526 kts 317°
2026-05-05 18:27 59.54819 -85.14086 31750 ft 526 kts 317°
2026-05-05 18:27 59.60135 -85.24018 31755 ft 527 kts 317°
2026-05-05 18:28 59.68110 -85.39006 31764 ft 527 kts 316°
2026-05-05 18:28 59.73386 -85.48979 31767 ft 528 kts 316°
2026-05-05 18:29 59.78697 -85.59064 31774 ft 528 kts 316°
2026-05-05 18:29 59.83151 -85.67559 31778 ft 528 kts 316°
2026-05-05 18:30 59.88423 -85.77655 31782 ft 529 kts 316°
2026-05-05 18:30 59.93714 -85.87838 31791 ft 529 kts 315°
2026-05-05 18:31 59.99004 -85.98061 31796 ft 529 kts 315°
2026-05-05 18:31 60.04360 -86.08229 31794 ft 530 kts 317°
2026-05-05 18:32 60.09754 -86.18152 31800 ft 530 kts 317°
2026-05-05 18:32 60.15209 -86.28219 31813 ft 530 kts 316°
2026-05-05 18:33 60.20619 -86.38312 31812 ft 530 kts 316°
2026-05-05 18:33 60.26015 -86.48459 31821 ft 531 kts 316°
2026-05-05 18:34 60.31378 -86.58598 31826 ft 531 kts 316°
2026-05-05 18:34 60.36779 -86.68854 31836 ft 531 kts 316°
2026-05-05 18:35 60.42162 -86.79122 31837 ft 531 kts 315°
2026-05-05 18:35 60.47516 -86.89383 31839 ft 531 kts 315°
2026-05-05 18:36 60.52909 -86.99768 31847 ft 532 kts 315°
2026-05-05 18:36 60.58239 -87.10081 31852 ft 532 kts 315°
2026-05-05 18:37 60.63615 -87.20534 31851 ft 532 kts 315°
2026-05-05 18:37 60.68932 -87.30921 31855 ft 531 kts 314°
2026-05-05 18:38 60.74273 -87.41408 31866 ft 531 kts 314°
2026-05-05 18:38 60.79581 -87.51878 31867 ft 531 kts 314°
2026-05-05 18:39 60.84905 -87.62432 31868 ft 531 kts 314°
2026-05-05 18:39 60.90220 -87.73021 31869 ft 532 kts 314°
2026-05-05 18:40 60.95525 -87.83641 31883 ft 531 kts 314°
2026-05-05 18:40 61.00792 -87.94237 31883 ft 530 kts 314°
2026-05-05 18:41 61.06055 -88.04875 31883 ft 529 kts 314°
2026-05-05 18:41 61.11330 -88.15592 31889 ft 529 kts 314°
2026-05-05 18:42 61.16542 -88.26234 31891 ft 528 kts 313°
2026-05-05 18:42 61.21758 -88.36936 31897 ft 528 kts 313°
2026-05-05 18:43 61.26970 -88.47681 31902 ft 528 kts 313°
2026-05-05 18:43 61.32164 -88.58445 31907 ft 527 kts 313°
2026-05-05 18:44 61.37350 -88.69243 31902 ft 526 kts 313°
2026-05-05 18:44 61.42534 -88.80093 31904 ft 526 kts 313°
2026-05-05 18:45 61.47671 -88.90896 31911 ft 525 kts 313°
2026-05-05 18:45 61.52803 -89.01743 31907 ft 525 kts 313°
2026-05-05 18:46 61.57939 -89.12654 31924 ft 524 kts 313°
2026-05-05 18:46 61.63083 -89.23637 31931 ft 524 kts 313°
2026-05-05 18:47 61.68151 -89.34509 31919 ft 523 kts 313°
2026-05-05 18:47 61.73246 -89.45497 31925 ft 523 kts 313°
2026-05-05 18:48 61.78313 -89.56477 31934 ft 522 kts 313°
2026-05-05 18:48 61.83377 -89.67509 31935 ft 522 kts 313°
2026-05-05 18:49 61.88442 -89.78597 31942 ft 521 kts 313°
2026-05-05 18:49 61.93449 -89.89615 31946 ft 521 kts 312°
2026-05-05 18:50 61.98474 -90.00727 31949 ft 521 kts 312°
2026-05-05 18:50 62.03508 -90.11917 31953 ft 520 kts 312°
2026-05-05 18:51 62.08477 -90.23019 31956 ft 519 kts 312°
2026-05-05 18:51 62.13433 -90.34149 31961 ft 518 kts 312°
2026-05-05 18:52 62.18407 -90.45375 31969 ft 518 kts 312°
2026-05-05 18:52 62.23350 -90.56588 31970 ft 517 kts 312°
2026-05-05 18:53 62.28271 -90.67808 31977 ft 517 kts 312°
2026-05-05 18:53 62.33185 -90.79069 31984 ft 516 kts 312°
2026-05-05 18:54 62.38088 -90.90362 31990 ft 516 kts 312°
2026-05-05 18:54 62.42991 -91.01713 31996 ft 517 kts 312°
2026-05-05 18:55 62.47881 -91.13099 32003 ft 518 kts 312°
2026-05-05 18:55 62.52809 -91.24627 32011 ft 519 kts 312°
2026-05-05 18:56 62.57661 -91.36038 32010 ft 517 kts 312°
2026-05-05 18:56 62.62517 -91.47517 32016 ft 514 kts 312°
2026-05-05 18:57 62.67335 -91.58965 32031 ft 511 kts 312°
2026-05-05 18:57 62.72128 -91.70415 32044 ft 511 kts 312°
2026-05-05 18:58 62.76939 -91.81967 32045 ft 511 kts 312°
2026-05-05 18:58 62.81680 -91.93410 32045 ft 512 kts 312°
2026-05-05 18:59 62.86452 -92.04990 32046 ft 511 kts 312°
2026-05-05 18:59 62.91217 -92.16610 32046 ft 511 kts 312°
2026-05-05 19:00 62.95959 -92.28239 32047 ft 510 kts 312°
2026-05-05 19:00 63.00659 -92.39823 32048 ft 508 kts 312°
2026-05-05 19:01 63.05352 -92.51452 32064 ft 508 kts 312°
2026-05-05 19:01 63.10046 -92.63145 32073 ft 509 kts 312°
2026-05-05 19:02 63.14719 -92.74846 32061 ft 508 kts 312°
2026-05-05 19:02 63.19373 -92.86562 32065 ft 505 kts 312°
2026-05-05 19:03 63.24015 -92.98313 32067 ft 504 kts 312°
2026-05-05 19:03 63.28634 -93.10058 32076 ft 504 kts 312°
2026-05-05 19:04 63.33230 -93.21812 32076 ft 504 kts 312°
2026-05-05 19:04 63.37022 -93.31562 32075 ft 502 kts 312°
2026-05-05 19:05 63.41592 -93.43365 32083 ft 501 kts 312°
2026-05-05 19:05 63.46157 -93.55216 32089 ft 500 kts 312°
2026-05-05 19:06 63.50680 -93.67021 32091 ft 501 kts 312°
2026-05-05 19:06 63.55199 -93.78878 32092 ft 502 kts 311°
2026-05-05 19:07 63.59748 -93.90879 32118 ft 502 kts 311°
2026-05-05 19:07 63.64253 -94.02830 32115 ft 501 kts 311°
2026-05-05 19:08 63.68761 -94.14852 32114 ft 500 kts 311°
2026-05-05 19:08 63.73235 -94.26848 32125 ft 500 kts 311°
2026-05-05 19:09 63.77707 -94.38904 32128 ft 500 kts 311°
2026-05-05 19:09 63.82185 -94.51040 32132 ft 500 kts 311°
2026-05-05 19:10 63.86632 -94.63160 32136 ft 501 kts 311°
2026-05-05 19:10 63.91058 -94.75290 32136 ft 501 kts 311°
2026-05-05 19:11 63.95497 -94.87518 32141 ft 501 kts 310°
2026-05-05 19:11 63.99930 -94.99795 32141 ft 500 kts 310°
2026-05-05 19:12 64.04344 -95.11936 32148 ft 498 kts 311°
2026-05-05 19:12 64.08813 -95.24157 32154 ft 498 kts 311°
2026-05-05 19:13 64.13234 -95.36326 32155 ft 498 kts 311°
2026-05-05 19:13 64.17649 -95.48570 32167 ft 499 kts 310°
2026-05-05 19:14 64.22087 -95.60953 32171 ft 499 kts 310°
2026-05-05 19:14 64.26480 -95.73285 32175 ft 499 kts 310°
2026-05-05 19:15 64.30876 -95.85690 32182 ft 499 kts 310°
2026-05-05 19:15 64.35222 -95.98021 32187 ft 499 kts 310°
2026-05-05 19:16 64.39623 -96.10579 32193 ft 498 kts 310°
2026-05-05 19:16 64.43974 -96.23065 32200 ft 498 kts 310°
2026-05-05 19:17 64.48316 -96.35594 32208 ft 499 kts 310°
2026-05-05 19:17 64.52655 -96.48187 32212 ft 499 kts 310°
2026-05-05 19:18 64.56942 -96.60702 32217 ft 499 kts 310°
2026-05-05 19:18 64.61264 -96.73386 32224 ft 497 kts 309°
2026-05-05 19:19 64.65552 -96.86050 32231 ft 496 kts 309°
2026-05-05 19:19 64.69812 -96.98694 32235 ft 496 kts 309°
2026-05-05 19:20 64.74058 -97.11367 32241 ft 497 kts 310°
2026-05-05 19:20 64.78341 -97.24226 32248 ft 498 kts 309°
2026-05-05 19:21 64.82573 -97.37011 32252 ft 498 kts 309°
2026-05-05 19:21 64.86800 -97.49850 32256 ft 497 kts 309°
2026-05-05 19:22 64.91026 -97.62761 32255 ft 495 kts 309°
2026-05-05 19:22 64.95207 -97.75607 32261 ft 493 kts 309°
2026-05-05 19:23 64.99360 -97.88443 32276 ft 492 kts 309°
2026-05-05 19:23 65.03528 -98.01401 32273 ft 493 kts 309°
2026-05-05 19:24 65.07672 -98.14354 32283 ft 494 kts 309°
2026-05-05 19:24 65.11813 -98.27376 32293 ft 493 kts 309°
2026-05-05 19:25 65.15902 -98.40311 32290 ft 493 kts 308°
2026-05-05 19:25 65.20043 -98.53489 32297 ft 492 kts 308°
2026-05-05 19:26 65.24100 -98.66475 32305 ft 493 kts 308°
2026-05-05 19:26 65.28187 -98.79630 32313 ft 492 kts 308°
2026-05-05 19:27 65.32254 -98.92801 32314 ft 492 kts 308°
2026-05-05 19:27 65.36320 -99.06048 32318 ft 491 kts 308°
2026-05-05 19:28 65.40346 -99.19243 32324 ft 491 kts 308°
2026-05-05 19:28 65.44363 -99.32485 32323 ft 490 kts 308°
2026-05-05 19:29 65.48375 -99.45791 32330 ft 490 kts 308°
2026-05-05 19:29 65.52365 -99.59100 32337 ft 490 kts 307°
2026-05-05 19:30 65.56347 -99.72467 32333 ft 491 kts 307°
2026-05-05 19:30 65.60332 -99.85920 32347 ft 490 kts 307°
2026-05-05 19:31 65.64269 -99.99293 32342 ft 490 kts 307°
2026-05-05 19:31 65.68209 -100.12760 32353 ft 490 kts 307°
2026-05-05 19:32 65.72145 -100.26294 32347 ft 490 kts 307°
2026-05-05 19:32 65.76058 -100.39831 32357 ft 490 kts 306°
2026-05-05 19:33 65.79975 -100.53465 32354 ft 490 kts 306°
2026-05-05 19:33 65.83879 -100.67134 32361 ft 490 kts 306°
2026-05-05 19:34 65.87762 -100.80817 32360 ft 490 kts 306°
2026-05-05 19:35 65.93570 -101.01441 32360 ft 490 kts 306°
2026-05-05 19:35 65.97430 -101.15257 32363 ft 490 kts 305°
2026-05-05 19:36 66.01274 -101.29100 32369 ft 490 kts 305°
2026-05-05 19:36 66.05097 -101.42952 32368 ft 490 kts 305°
2026-05-05 19:37 66.08921 -101.56897 32374 ft 490 kts 305°
2026-05-05 19:37 66.12729 -101.70871 32374 ft 491 kts 305°
2026-05-05 19:38 66.16539 -101.84940 32372 ft 491 kts 304°
2026-05-05 19:38 66.20311 -101.98960 32374 ft 491 kts 304°
2026-05-05 19:39 66.24095 -102.13110 32370 ft 491 kts 304°
2026-05-05 19:39 66.27837 -102.27198 32373 ft 491 kts 304°
2026-05-05 19:40 66.30973 -102.39071 32373 ft 491 kts 304°
2026-05-05 19:40 66.35321 -102.55643 32373 ft 491 kts 304°
2026-05-05 19:41 66.39045 -102.69935 32374 ft 492 kts 303°
2026-05-05 19:41 66.42165 -102.81980 32372 ft 492 kts 303°
2026-05-05 19:42 66.45863 -102.96343 32373 ft 492 kts 303°
2026-05-05 19:42 66.49548 -103.10746 32372 ft 492 kts 303°
2026-05-05 19:43 66.53220 -103.25198 32364 ft 493 kts 303°
2026-05-05 19:43 66.56912 -103.39824 32361 ft 493 kts 303°
2026-05-05 19:44 66.60559 -103.54367 32360 ft 493 kts 303°
2026-05-05 19:44 66.64190 -103.68944 32357 ft 493 kts 303°
2026-05-05 19:45 66.67829 -103.83648 32369 ft 493 kts 302°
2026-05-05 19:45 66.71446 -103.98365 32346 ft 493 kts 302°
2026-05-05 19:46 66.75037 -104.13074 32348 ft 493 kts 302°
2026-05-05 19:46 66.78638 -104.27922 32357 ft 493 kts 302°
2026-05-05 19:47 66.82211 -104.42758 32354 ft 493 kts 302°
2026-05-05 19:47 66.85763 -104.57605 32349 ft 493 kts 302°
2026-05-05 19:48 66.89338 -104.72654 32348 ft 493 kts 302°
2026-05-05 19:48 66.92870 -104.87622 32338 ft 493 kts 302°
2026-05-05 19:49 66.96385 -105.02626 32338 ft 493 kts 302°
2026-05-05 19:49 66.99881 -105.17644 32312 ft 493 kts 302°
2026-05-05 19:50 67.03368 -105.32736 32326 ft 493 kts 301°
2026-05-05 19:50 67.06841 -105.47870 32319 ft 492 kts 301°
2026-05-05 19:51 67.10302 -105.63059 32318 ft 492 kts 301°
2026-05-05 19:51 67.13744 -105.78269 32311 ft 492 kts 301°
2026-05-05 19:52 67.17159 -105.93466 32309 ft 491 kts 301°
2026-05-05 19:52 67.20569 -106.08748 32300 ft 491 kts 301°
2026-05-05 19:53 67.23953 -106.24027 32297 ft 490 kts 301°
2026-05-05 19:53 67.27337 -106.39411 32291 ft 490 kts 301°
2026-05-05 19:54 67.30692 -106.54775 32287 ft 489 kts 301°
2026-05-05 19:54 67.34006 -106.70056 32286 ft 489 kts 301°
2026-05-05 19:55 67.37311 -106.85411 32281 ft 489 kts 301°
2026-05-05 19:55 67.40638 -107.00976 32279 ft 488 kts 301°
2026-05-05 19:56 67.43904 -107.16369 32271 ft 488 kts 301°
2026-05-05 19:56 67.47160 -107.31826 32273 ft 487 kts 301°
2026-05-05 19:57 67.50412 -107.47377 32262 ft 486 kts 301°
2026-05-05 19:57 67.53633 -107.62895 32261 ft 486 kts 301°
2026-05-05 19:58 67.56839 -107.78450 32257 ft 485 kts 301°
2026-05-05 19:58 67.60017 -107.93989 32255 ft 484 kts 301°
2026-05-05 19:59 67.63184 -108.09586 32255 ft 483 kts 301°
2026-05-05 19:59 67.66308 -108.25086 32244 ft 482 kts 301°
2026-05-05 20:00 67.69446 -108.40775 32241 ft 480 kts 301°
2026-05-05 20:00 67.72520 -108.56254 32249 ft 479 kts 301°
2026-05-05 20:01 67.75589 -108.71823 32251 ft 477 kts 301°
2026-05-05 20:01 67.78636 -108.87393 32244 ft 476 kts 301°
2026-05-05 20:02 67.81662 -109.02978 32217 ft 475 kts 301°
2026-05-05 20:02 67.84671 -109.18589 32239 ft 474 kts 300°
2026-05-05 20:03 67.87640 -109.34107 32229 ft 473 kts 300°
2026-05-05 20:03 67.90618 -109.49792 32229 ft 473 kts 300°
2026-05-05 20:04 67.93540 -109.65301 32226 ft 471 kts 300°
2026-05-05 20:04 67.96460 -109.80906 32223 ft 470 kts 300°
2026-05-05 20:05 67.99353 -109.96485 32222 ft 469 kts 300°
2026-05-05 20:05 68.01812 -110.12664 32218 ft 472 kts 294°
2026-05-05 20:06 68.03969 -110.29249 32210 ft 471 kts 294°
2026-05-05 20:06 68.06106 -110.45663 32210 ft 469 kts 294°
2026-05-05 20:07 68.08264 -110.62171 32207 ft 468 kts 294°
2026-05-05 20:07 68.10399 -110.78571 32208 ft 468 kts 294°
2026-05-05 20:08 68.12238 -110.92821 32207 ft 467 kts 294°
2026-05-05 20:08 68.14349 -111.09322 32206 ft 466 kts 294°
2026-05-05 20:09 68.16439 -111.25833 32206 ft 465 kts 294°
2026-05-05 20:09 68.18508 -111.42338 32207 ft 465 kts 294°
2026-05-05 20:10 68.20555 -111.58829 32204 ft 464 kts 294°
2026-05-05 20:10 68.22573 -111.75237 32206 ft 464 kts 294°
2026-05-05 20:11 68.24573 -111.91663 32208 ft 463 kts 294°
2026-05-05 20:11 68.26571 -112.08242 32210 ft 462 kts 293°
2026-05-05 20:12 68.28539 -112.24729 32205 ft 462 kts 293°
2026-05-05 20:12 68.30496 -112.41294 32199 ft 461 kts 293°
2026-05-05 20:13 68.32429 -112.57830 32201 ft 460 kts 292°
2026-05-05 20:13 68.34339 -112.74332 32214 ft 459 kts 292°
2026-05-05 20:14 68.36226 -112.90791 32208 ft 459 kts 292°
2026-05-05 20:14 68.38100 -113.07322 32201 ft 458 kts 292°
2026-05-05 20:15 68.39950 -113.23803 32197 ft 457 kts 291°
2026-05-05 20:15 68.41792 -113.40391 32194 ft 457 kts 291°
2026-05-05 20:16 68.43604 -113.56874 32191 ft 455 kts 291°
2026-05-05 20:16 68.45399 -113.73388 32190 ft 455 kts 291°
2026-05-05 20:17 68.47178 -113.89918 32189 ft 454 kts 291°
2026-05-05 20:17 68.48921 -114.06296 32190 ft 453 kts 290°
2026-05-05 20:18 68.50660 -114.22806 32184 ft 453 kts 290°
2026-05-05 20:18 68.52380 -114.39321 32185 ft 452 kts 290°
2026-05-05 20:19 68.54084 -114.55867 32178 ft 451 kts 290°
2026-05-05 20:19 68.55767 -114.72387 32178 ft 451 kts 290°
2026-05-05 20:20 68.57155 -114.86150 32179 ft 451 kts 290°
2026-05-05 20:20 68.58810 -115.02733 32186 ft 450 kts 289°
2026-05-05 20:21 68.60452 -115.19374 32176 ft 450 kts 289°
2026-05-05 20:21 68.62057 -115.35828 32162 ft 450 kts 289°
2026-05-05 20:22 68.63654 -115.52387 32179 ft 450 kts 289°
2026-05-05 20:22 68.65236 -115.68991 32175 ft 449 kts 289°
2026-05-05 20:23 68.66802 -115.85608 32163 ft 448 kts 288°
2026-05-05 20:23 68.68347 -116.02203 32160 ft 448 kts 288°
2026-05-05 20:24 68.69873 -116.18790 32156 ft 449 kts 288°
2026-05-05 20:24 68.71387 -116.35455 32156 ft 449 kts 288°
2026-05-05 20:25 68.72884 -116.52133 32144 ft 449 kts 287°
2026-05-05 20:25 68.74373 -116.68921 32139 ft 449 kts 287°
2026-05-05 20:26 68.75841 -116.85687 32138 ft 449 kts 287°
2026-05-05 20:26 68.77286 -117.02400 32130 ft 449 kts 287°
2026-05-05 20:27 68.78716 -117.19159 32122 ft 449 kts 286°
2026-05-05 20:27 68.80141 -117.36070 32124 ft 449 kts 286°
2026-05-05 20:28 68.81537 -117.52855 32121 ft 449 kts 286°
2026-05-05 20:28 68.82921 -117.69727 32117 ft 449 kts 285°
2026-05-05 20:29 68.84289 -117.86614 32116 ft 450 kts 285°
2026-05-05 20:29 68.85645 -118.03594 32109 ft 450 kts 285°
2026-05-05 20:30 68.86981 -118.20554 32105 ft 451 kts 285°
2026-05-05 20:30 68.88301 -118.37542 32101 ft 451 kts 284°
2026-05-05 20:31 68.89598 -118.54469 32098 ft 451 kts 284°
2026-05-05 20:31 68.90881 -118.71456 32092 ft 451 kts 284°
2026-05-05 20:32 68.92154 -118.88559 32085 ft 451 kts 283°
2026-05-05 20:32 68.93414 -119.05728 32078 ft 452 kts 283°
2026-05-05 20:33 68.94640 -119.22698 32076 ft 452 kts 283°
2026-05-05 20:33 68.95874 -119.40017 32070 ft 452 kts 283°
2026-05-05 20:34 68.97066 -119.57023 32065 ft 452 kts 282°
2026-05-05 20:34 68.98258 -119.74278 32056 ft 452 kts 282°
2026-05-05 20:35 68.99429 -119.91469 32056 ft 452 kts 282°
2026-05-05 20:35 69.00596 -120.08732 32063 ft 453 kts 282°
2026-05-05 20:36 69.01794 -120.26026 32056 ft 453 kts 282°
2026-05-05 20:36 69.02990 -120.43465 32061 ft 454 kts 282°
2026-05-05 20:37 69.04151 -120.60704 32058 ft 454 kts 281°
2026-05-05 20:37 69.05296 -120.78024 32064 ft 454 kts 281°
2026-05-05 20:38 69.06428 -120.95463 32061 ft 455 kts 281°
2026-05-05 20:38 69.07539 -121.12851 32070 ft 455 kts 280°
2026-05-05 20:39 69.08634 -121.30306 32068 ft 455 kts 280°
2026-05-05 20:39 69.09717 -121.47851 32077 ft 455 kts 280°
2026-05-05 20:40 69.10777 -121.65333 32070 ft 456 kts 279°
2026-05-05 20:40 69.11821 -121.82880 32072 ft 456 kts 279°
2026-05-05 20:41 69.12840 -122.00300 32066 ft 457 kts 279°
2026-05-05 20:41 69.13854 -122.17960 32063 ft 457 kts 279°
2026-05-05 20:42 69.14844 -122.35547 32063 ft 457 kts 278°
2026-05-05 20:42 69.15819 -122.53199 32044 ft 457 kts 278°
2026-05-05 20:43 69.16778 -122.70906 32045 ft 457 kts 278°
2026-05-05 20:43 69.17715 -122.88551 32030 ft 457 kts 278°
2026-05-05 20:44 69.18633 -123.06184 32014 ft 458 kts 277°
2026-05-05 20:44 69.19544 -123.24066 32014 ft 458 kts 277°
2026-05-05 20:45 69.20867 -123.50733 31996 ft 459 kts 277°
2026-05-05 20:45 69.21724 -123.68474 31992 ft 459 kts 277°
2026-05-05 20:46 69.22566 -123.86295 31976 ft 460 kts 276°
2026-05-05 20:46 69.23396 -124.04294 31970 ft 460 kts 276°
2026-05-05 20:47 69.24198 -124.22076 31966 ft 461 kts 276°
2026-05-05 20:47 69.24987 -124.40018 31965 ft 461 kts 276°
2026-05-05 20:48 69.25760 -124.58016 31947 ft 461 kts 275°
2026-05-05 20:48 69.26511 -124.75951 31954 ft 461 kts 275°
2026-05-05 20:49 69.27246 -124.93952 31943 ft 462 kts 275°
2026-05-05 20:49 69.27966 -125.12081 31934 ft 463 kts 275°
2026-05-05 20:50 69.28548 -125.27087 31937 ft 463 kts 275°
2026-05-05 20:50 69.29342 -125.48171 31932 ft 463 kts 274°
2026-05-05 20:51 69.30005 -125.66308 31927 ft 463 kts 274°
2026-05-05 20:51 69.30646 -125.84375 31928 ft 463 kts 274°
2026-05-05 20:52 69.31270 -126.02501 31924 ft 464 kts 274°
2026-05-05 20:52 69.31871 -126.20563 31919 ft 464 kts 273°
2026-05-05 20:53 69.32454 -126.38613 31911 ft 465 kts 273°
2026-05-05 20:53 69.33021 -126.56794 31910 ft 465 kts 273°
2026-05-05 20:54 69.33574 -126.75123 31904 ft 466 kts 272°
2026-05-05 20:54 69.34107 -126.93446 31888 ft 466 kts 272°
2026-05-05 20:55 69.34622 -127.11812 31885 ft 466 kts 272°
2026-05-05 20:55 69.35114 -127.30115 31866 ft 466 kts 272°
2026-05-05 20:56 69.35585 -127.48337 31857 ft 466 kts 271°
2026-05-05 20:56 69.36041 -127.66668 31845 ft 467 kts 271°
2026-05-05 20:57 69.36405 -127.81952 31844 ft 467 kts 271°
2026-05-05 20:57 69.36825 -128.00342 31841 ft 467 kts 271°
2026-05-05 20:58 69.37228 -128.18811 31828 ft 467 kts 270°
2026-05-05 20:58 69.37608 -128.37176 31836 ft 468 kts 270°
2026-05-05 20:59 69.37970 -128.55620 31826 ft 469 kts 270°
2026-05-05 20:59 69.38314 -128.74142 31821 ft 469 kts 270°
2026-05-05 21:00 69.38638 -128.92596 31816 ft 469 kts 270°
2026-05-05 21:00 69.38944 -129.11176 31816 ft 469 kts 269°
2026-05-05 21:01 69.39228 -129.29697 31808 ft 469 kts 269°
2026-05-05 21:01 69.39492 -129.48128 31799 ft 470 kts 269°
2026-05-05 21:02 69.39734 -129.66418 31793 ft 471 kts 269°
2026-05-05 21:02 69.39963 -129.85206 31788 ft 471 kts 268°
2026-05-05 21:03 69.40170 -130.03795 31779 ft 471 kts 268°
2026-05-05 21:03 69.40356 -130.22410 31779 ft 471 kts 268°
2026-05-05 21:04 69.40523 -130.41062 31781 ft 472 kts 268°
2026-05-05 21:04 69.40670 -130.59687 31777 ft 471 kts 267°
2026-05-05 21:05 69.40797 -130.78276 31778 ft 471 kts 267°
2026-05-05 21:05 69.40904 -130.96958 31782 ft 472 kts 267°
2026-05-05 21:06 69.40991 -131.15630 31758 ft 473 kts 266°
2026-05-05 21:06 69.41059 -131.34327 31779 ft 473 kts 266°
2026-05-05 21:07 69.41106 -131.53026 31770 ft 473 kts 266°
2026-05-05 21:07 69.41133 -131.71805 31761 ft 474 kts 266°
2026-05-05 21:08 69.41140 -131.90539 31776 ft 474 kts 265°
2026-05-05 21:08 69.41127 -132.09144 31768 ft 475 kts 265°
2026-05-05 21:09 69.41094 -132.27975 31773 ft 475 kts 265°
2026-05-05 21:09 69.41040 -132.46729 31770 ft 475 kts 265°
2026-05-05 21:10 69.40965 -132.65568 31774 ft 476 kts 264°
2026-05-05 21:10 69.40871 -132.84332 31768 ft 476 kts 264°
2026-05-05 21:11 69.40756 -133.03199 31769 ft 477 kts 264°
2026-05-05 21:11 69.40621 -133.22053 31746 ft 477 kts 264°
2026-05-05 21:12 69.40465 -133.40935 31749 ft 478 kts 264°
2026-05-05 21:12 69.40288 -133.59789 31759 ft 478 kts 263°
2026-05-05 21:13 69.40090 -133.78726 31758 ft 479 kts 263°
2026-05-05 21:13 69.39874 -133.97486 31774 ft 480 kts 263°
2026-05-05 21:14 69.39632 -134.16617 31769 ft 480 kts 263°
2026-05-05 21:14 69.39373 -134.35490 31764 ft 481 kts 262°
2026-05-05 21:15 69.39093 -134.54474 31761 ft 481 kts 262°
2026-05-05 21:15 69.38793 -134.73350 31743 ft 481 kts 262°
2026-05-05 21:16 69.38470 -134.92384 31737 ft 482 kts 262°
2026-05-05 21:16 69.38126 -135.11379 31733 ft 482 kts 262°
2026-05-05 21:17 69.37762 -135.30314 31723 ft 483 kts 261°
2026-05-05 21:17 69.37373 -135.49482 31722 ft 483 kts 261°
2026-05-05 21:18 69.36968 -135.68394 31798 ft 485 kts 261°
2026-05-05 21:18 69.36755 -135.77948 31998 ft 485 kts 261°
2026-05-05 21:18 69.36539 -135.87475 32252 ft 483 kts 261°
2026-05-05 21:19 69.36319 -135.96961 32513 ft 481 kts 261°
2026-05-05 21:19 69.36097 -136.06296 32788 ft 479 kts 261°
2026-05-05 21:19 69.35866 -136.15802 33082 ft 476 kts 260°
2026-05-05 21:19 69.35633 -136.25153 33397 ft 473 kts 260°
2026-05-05 21:20 69.35397 -136.34437 33646 ft 472 kts 260°
2026-05-05 21:20 69.35157 -136.43656 33669 ft 469 kts 260°
2026-05-05 21:20 69.34663 -136.62061 33688 ft 465 kts 259°
2026-05-05 21:21 69.34152 -136.80256 33703 ft 466 kts 259°
2026-05-05 21:21 69.33619 -136.98568 33700 ft 467 kts 259°
2026-05-05 21:22 69.33069 -137.16872 33697 ft 468 kts 259°
2026-05-05 21:22 69.32495 -137.35318 33693 ft 468 kts 259°
2026-05-05 21:23 69.31903 -137.53700 33693 ft 469 kts 259°
2026-05-05 21:23 69.31292 -137.72053 33696 ft 470 kts 258°
2026-05-05 21:24 69.30661 -137.90401 33695 ft 471 kts 258°
2026-05-05 21:24 69.30008 -138.08842 33690 ft 471 kts 258°
2026-05-05 21:25 69.29330 -138.27387 33695 ft 471 kts 258°
2026-05-05 21:25 69.28641 -138.45693 33698 ft 472 kts 258°
2026-05-05 21:26 69.27927 -138.64136 33705 ft 473 kts 258°
2026-05-05 21:26 69.27192 -138.82617 33705 ft 474 kts 257°
2026-05-05 21:27 69.26437 -139.01093 33703 ft 474 kts 257°
2026-05-05 21:27 69.25659 -139.19594 33706 ft 475 kts 257°
2026-05-05 21:28 69.24863 -139.38090 33681 ft 475 kts 257°
2026-05-05 21:28 69.24043 -139.56627 33704 ft 476 kts 257°
2026-05-05 21:29 69.23206 -139.75120 33686 ft 477 kts 256°
2026-05-05 21:29 69.22346 -139.93644 33677 ft 477 kts 256°
2026-05-05 21:30 69.21461 -140.12258 33673 ft 477 kts 256°
2026-05-05 21:30 69.20560 -140.30797 33666 ft 478 kts 256°
2026-05-05 21:31 69.19647 -140.49170 33663 ft 478 kts 256°
2026-05-05 21:31 69.18706 -140.67701 33663 ft 478 kts 256°
2026-05-05 21:32 69.17747 -140.86223 33658 ft 480 kts 256°
2026-05-05 21:32 69.16659 -141.04673 33651 ft 476 kts 250°
2026-05-05 21:33 69.14859 -141.22439 33653 ft 474 kts 248°
2026-05-05 21:33 69.13332 -141.37308 33648 ft 474 kts 248°
2026-05-05 21:34 69.11526 -141.55055 33652 ft 476 kts 249°
2026-05-05 21:34 69.09707 -141.72889 33632 ft 476 kts 249°
2026-05-05 21:35 69.07862 -141.90790 33645 ft 476 kts 249°
2026-05-05 21:35 69.06010 -142.08532 33616 ft 477 kts 248°
2026-05-05 21:36 69.04119 -142.26412 33615 ft 477 kts 248°
2026-05-05 21:36 69.02219 -142.44195 33653 ft 477 kts 248°
2026-05-05 21:37 69.00309 -142.61831 33635 ft 479 kts 248°
2026-05-05 21:37 68.98370 -142.79569 33629 ft 478 kts 248°
2026-05-05 21:38 68.96406 -142.97310 33638 ft 478 kts 248°
2026-05-05 21:38 68.94431 -143.14973 33627 ft 479 kts 248°
2026-05-05 21:39 68.92436 -143.32618 33623 ft 479 kts 248°
2026-05-05 21:39 68.90414 -143.50293 33631 ft 479 kts 248°
2026-05-05 21:40 68.88366 -143.68023 33607 ft 480 kts 248°
2026-05-05 21:40 68.86316 -143.85577 33597 ft 481 kts 248°
2026-05-05 21:41 68.84232 -144.03235 33607 ft 481 kts 248°
2026-05-05 21:41 68.82141 -144.20751 33610 ft 482 kts 248°
2026-05-05 21:42 68.80004 -144.38467 33618 ft 482 kts 248°
2026-05-05 21:42 68.77886 -144.55855 33614 ft 482 kts 248°
2026-05-05 21:43 68.75723 -144.73414 33628 ft 482 kts 248°
2026-05-05 21:43 68.73547 -144.90903 33634 ft 483 kts 247°
2026-05-05 21:44 68.71345 -145.08446 33641 ft 482 kts 247°
2026-05-05 21:44 68.69126 -145.25900 33639 ft 483 kts 247°
2026-05-05 21:45 68.66919 -145.43131 33640 ft 483 kts 247°
2026-05-05 21:45 68.64654 -145.60600 33638 ft 484 kts 247°
2026-05-05 21:46 68.62376 -145.78008 33654 ft 484 kts 247°
2026-05-05 21:46 68.60087 -145.95348 33651 ft 484 kts 246°
2026-05-05 21:47 68.57784 -146.12608 33657 ft 484 kts 246°
2026-05-05 21:47 68.55450 -146.29935 33661 ft 484 kts 246°
2026-05-05 21:48 68.53096 -146.47243 33662 ft 485 kts 246°
2026-05-05 21:48 68.50727 -146.64475 33674 ft 485 kts 246°
2026-05-05 21:49 68.48357 -146.81580 33692 ft 485 kts 246°
2026-05-05 21:49 68.45952 -146.98768 33680 ft 486 kts 246°
2026-05-05 21:50 68.43524 -147.15961 33711 ft 486 kts 246°
2026-05-05 21:50 68.41061 -147.33221 33726 ft 486 kts 246°
2026-05-05 21:51 68.38618 -147.50188 33715 ft 487 kts 245°
2026-05-05 21:51 68.36132 -147.67296 33725 ft 488 kts 245°
2026-05-05 21:52 68.32360 -147.92968 33719 ft 489 kts 245°
2026-05-05 21:53 68.29824 -148.10029 33722 ft 489 kts 245°
2026-05-05 21:53 68.27266 -148.27075 33721 ft 490 kts 245°
2026-05-05 21:54 68.24689 -148.44105 33723 ft 490 kts 245°
2026-05-05 21:54 68.22089 -148.61109 33718 ft 490 kts 245°
2026-05-05 21:55 68.19467 -148.78135 33732 ft 491 kts 245°
2026-05-05 21:55 68.16847 -148.94991 33735 ft 491 kts 245°
2026-05-05 21:56 68.14203 -149.11847 33737 ft 491 kts 245°
2026-05-05 21:56 68.11522 -149.28794 33730 ft 491 kts 244°
2026-05-05 21:57 68.08837 -149.45611 33728 ft 491 kts 244°
2026-05-05 21:57 68.06138 -149.62379 33725 ft 491 kts 244°
2026-05-05 21:58 68.03426 -149.79082 33733 ft 491 kts 244°
2026-05-05 21:58 68.00698 -149.95767 33728 ft 491 kts 244°
2026-05-05 21:59 67.97983 -150.12540 33724 ft 491 kts 245°
2026-05-05 21:59 67.95358 -150.29248 33732 ft 492 kts 245°
2026-05-05 22:00 67.92697 -150.46087 33723 ft 491 kts 245°
2026-05-05 22:00 67.90014 -150.62852 33730 ft 492 kts 245°
2026-05-05 22:01 67.87317 -150.79513 33692 ft 492 kts 244°
2026-05-05 22:01 67.84584 -150.96212 33741 ft 493 kts 244°
2026-05-05 22:02 67.81857 -151.12741 33739 ft 493 kts 244°
2026-05-05 22:02 67.79085 -151.29427 33725 ft 492 kts 244°
2026-05-05 22:03 67.76322 -151.45909 33740 ft 491 kts 244°
2026-05-05 22:03 67.73542 -151.62363 33752 ft 490 kts 244°
2026-05-05 22:04 67.70747 -151.78759 33741 ft 489 kts 244°
2026-05-05 22:04 67.67938 -151.95102 33719 ft 489 kts 244°
2026-05-05 22:05 67.65116 -152.11383 33735 ft 488 kts 244°
2026-05-05 22:05 67.62307 -152.27463 33725 ft 487 kts 243°
2026-05-05 22:06 67.59467 -152.43591 33722 ft 486 kts 243°
2026-05-05 22:06 67.56624 -152.59609 33721 ft 486 kts 243°
2026-05-05 22:07 67.53747 -152.75684 33715 ft 485 kts 243°
2026-05-05 22:07 67.50876 -152.91603 33713 ft 484 kts 243°
2026-05-05 22:08 67.48468 -153.04859 33713 ft 483 kts 243°
2026-05-05 22:08 67.45585 -153.20616 33703 ft 483 kts 243°
2026-05-05 22:09 67.42687 -153.36336 33696 ft 483 kts 242°
2026-05-05 22:09 67.39748 -153.52146 33687 ft 483 kts 242°
2026-05-05 22:10 67.36805 -153.67870 33695 ft 482 kts 242°
2026-05-05 22:10 67.33848 -153.83543 33677 ft 482 kts 242°
2026-05-05 22:11 67.30915 -153.98964 33695 ft 481 kts 242°
2026-05-05 22:11 67.27944 -154.14484 33707 ft 480 kts 242°
2026-05-05 22:12 67.24951 -154.29982 33704 ft 480 kts 242°
2026-05-05 22:12 67.21958 -154.45381 33708 ft 480 kts 241°
2026-05-05 22:13 67.18951 -154.60731 33708 ft 480 kts 241°
2026-05-05 22:13 67.15915 -154.76121 33725 ft 480 kts 241°
2026-05-05 22:14 67.12909 -154.91242 33716 ft 478 kts 241°
2026-05-05 22:14 67.09860 -155.06469 33727 ft 479 kts 241°
2026-05-05 22:15 67.06807 -155.21601 33732 ft 478 kts 240°
2026-05-05 22:15 67.03729 -155.36759 33738 ft 478 kts 240°
2026-05-05 22:16 67.00650 -155.51809 33738 ft 478 kts 240°
2026-05-05 22:16 66.97551 -155.66845 33747 ft 478 kts 240°
2026-05-05 22:17 66.94435 -155.81861 33763 ft 478 kts 240°
2026-05-05 22:17 66.91311 -155.96804 33773 ft 478 kts 240°
2026-05-05 22:18 66.88178 -156.11690 33770 ft 478 kts 240°
2026-05-05 22:18 66.85012 -156.26627 33787 ft 477 kts 240°
2026-05-05 22:19 66.81845 -156.41463 33790 ft 478 kts 239°
2026-05-05 22:19 66.78660 -156.56277 33801 ft 478 kts 239°
2026-05-05 22:20 66.75465 -156.71038 33800 ft 478 kts 239°
2026-05-05 22:20 66.72243 -156.85821 33803 ft 478 kts 239°
2026-05-05 22:21 66.69017 -157.00523 33801 ft 478 kts 239°
2026-05-05 22:21 66.65791 -157.15124 33803 ft 478 kts 239°
2026-05-05 22:22 66.62545 -157.29712 33806 ft 478 kts 239°
2026-05-05 22:22 66.59271 -157.44326 33794 ft 479 kts 239°
2026-05-05 22:23 66.56004 -157.58817 33792 ft 479 kts 239°
2026-05-05 22:23 66.52803 -157.72919 33791 ft 479 kts 238°
2026-05-05 22:24 66.49483 -157.87445 33788 ft 479 kts 238°
2026-05-05 22:24 66.46157 -158.01904 33791 ft 479 kts 238°
2026-05-05 22:25 66.42837 -158.16242 33805 ft 479 kts 238°
2026-05-05 22:25 66.39477 -158.30651 33808 ft 480 kts 238°
2026-05-05 22:26 66.36104 -158.45027 33811 ft 480 kts 238°
2026-05-05 22:26 66.32724 -158.59335 33813 ft 480 kts 238°
2026-05-05 22:27 66.29321 -158.73645 33816 ft 480 kts 238°
2026-05-05 22:27 66.25908 -158.87903 33826 ft 481 kts 238°
2026-05-05 22:28 66.22475 -159.02152 33835 ft 481 kts 238°
2026-05-05 22:28 66.19015 -159.16421 33836 ft 481 kts 238°
2026-05-05 22:29 66.15566 -159.30550 33841 ft 481 kts 238°
2026-05-05 22:29 66.12091 -159.44698 33849 ft 482 kts 237°
2026-05-05 22:30 66.08587 -159.58871 33884 ft 482 kts 237°
2026-05-05 22:30 66.05073 -159.72993 33904 ft 482 kts 237°
2026-05-05 22:31 66.01582 -159.86928 33927 ft 482 kts 237°
2026-05-05 22:31 65.98046 -160.00956 33936 ft 482 kts 237°
2026-05-05 22:32 65.94503 -160.14925 33941 ft 482 kts 237°
2026-05-05 22:32 65.90948 -160.28852 33945 ft 482 kts 237°
2026-05-05 22:33 65.87375 -160.42759 33964 ft 482 kts 237°
2026-05-05 22:33 65.83794 -160.56613 33963 ft 482 kts 237°
2026-05-05 22:34 65.80194 -160.70453 33971 ft 482 kts 237°
2026-05-05 22:34 65.76584 -160.84244 33972 ft 482 kts 237°
2026-05-05 22:35 65.72972 -160.97956 33973 ft 482 kts 236°
2026-05-05 22:35 65.69331 -161.11692 33975 ft 482 kts 236°
2026-05-05 22:36 65.65707 -161.25280 33985 ft 483 kts 236°
2026-05-05 22:36 65.62039 -161.38951 33990 ft 483 kts 236°
2026-05-05 22:37 65.58323 -161.52714 33982 ft 484 kts 236°
2026-05-05 22:37 65.54655 -161.66216 33991 ft 484 kts 236°
2026-05-05 22:38 65.50949 -161.79775 33985 ft 484 kts 236°
2026-05-05 22:38 65.47222 -161.93329 33980 ft 485 kts 236°
2026-05-05 22:39 65.43490 -162.06818 33982 ft 485 kts 236°
2026-05-05 22:39 65.39731 -162.20323 33983 ft 485 kts 236°
2026-05-05 22:40 65.35989 -162.33682 33977 ft 485 kts 236°
2026-05-05 22:40 65.32807 -162.44985 33976 ft 486 kts 236°
2026-05-05 22:41 65.29050 -162.58254 33979 ft 486 kts 235°
2026-05-05 22:41 65.25235 -162.71647 33982 ft 486 kts 235°
2026-05-05 22:42 65.21410 -162.84994 33972 ft 487 kts 235°
2026-05-05 22:42 65.17591 -162.98243 33980 ft 487 kts 235°
2026-05-05 22:43 65.13741 -163.11518 33983 ft 487 kts 235°
2026-05-05 22:43 65.09879 -163.24755 33989 ft 487 kts 235°
2026-05-05 22:44 65.05992 -163.38006 34008 ft 491 kts 238°
2026-05-05 22:44 65.02073 -163.51283 34000 ft 498 kts 238°
2026-05-05 22:45 64.98061 -163.64792 33990 ft 503 kts 238°
2026-05-05 22:45 64.94035 -163.78265 33999 ft 507 kts 238°
2026-05-05 22:46 64.89935 -163.91904 33991 ft 506 kts 238°
2026-05-05 22:46 64.85866 -164.05353 33988 ft 504 kts 238°
2026-05-05 22:47 64.81760 -164.18850 33990 ft 504 kts 238°
2026-05-05 22:47 64.77661 -164.32243 33992 ft 505 kts 237°
2026-05-05 22:48 64.73579 -164.45499 33986 ft 505 kts 237°
2026-05-05 22:48 64.69429 -164.58900 33982 ft 505 kts 237°
2026-05-05 22:49 64.65323 -164.72078 33992 ft 505 kts 238°
2026-05-05 22:49 64.61174 -164.85321 33985 ft 505 kts 237°
2026-05-05 22:50 64.57027 -164.98475 33989 ft 505 kts 238°
2026-05-05 22:50 64.52855 -165.11641 33988 ft 505 kts 238°
2026-05-05 22:51 64.48661 -165.24841 33989 ft 504 kts 239°
2026-05-05 22:51 64.44996 -165.38605 33993 ft 500 kts 244°
2026-05-05 22:52 64.41481 -165.52601 33996 ft 500 kts 244°
2026-05-05 22:52 64.37940 -165.66471 33995 ft 500 kts 244°
2026-05-05 22:53 64.34417 -165.80072 34002 ft 499 kts 244°
2026-05-05 22:53 64.30800 -165.93919 34014 ft 499 kts 244°
2026-05-05 22:54 64.27208 -166.07587 34023 ft 498 kts 244°
2026-05-05 22:54 64.23935 -166.19973 34026 ft 498 kts 244°
2026-05-05 22:55 64.20326 -166.33557 34031 ft 498 kts 244°
2026-05-05 22:55 64.16709 -166.47090 34031 ft 498 kts 244°
2026-05-05 22:56 64.13072 -166.60612 34041 ft 498 kts 244°
2026-05-05 22:56 64.09448 -166.74001 34042 ft 497 kts 244°
2026-05-05 22:57 64.05795 -166.87421 34047 ft 497 kts 244°
2026-05-05 22:57 64.02130 -167.00808 34048 ft 496 kts 244°
2026-05-05 22:58 63.98521 -167.13905 34054 ft 496 kts 244°
2026-05-05 22:58 63.94867 -167.27092 34054 ft 496 kts 244°
2026-05-05 22:59 63.91157 -167.40402 34054 ft 496 kts 244°
2026-05-05 22:59 63.87443 -167.53651 34057 ft 496 kts 244°
2026-05-05 23:00 63.81867 -167.73391 34063 ft 496 kts 244°
2026-05-05 23:00 63.78140 -167.86490 34059 ft 495 kts 244°
2026-05-05 23:01 63.74406 -167.99534 34067 ft 495 kts 243°
2026-05-05 23:01 63.70644 -168.12605 34076 ft 495 kts 243°
2026-05-05 23:02 63.66890 -168.25570 34069 ft 494 kts 243°
2026-05-05 23:02 63.63089 -168.38623 34068 ft 494 kts 243°
2026-05-05 23:03 63.59310 -168.51527 34070 ft 493 kts 243°
2026-05-05 23:03 63.55549 -168.64298 34075 ft 493 kts 243°
2026-05-05 23:04 63.51747 -168.77131 34078 ft 493 kts 243°
2026-05-05 23:04 63.47954 -168.89861 34072 ft 493 kts 243°
2026-05-05 23:05 63.44134 -169.02608 34077 ft 493 kts 242°
2026-05-05 23:05 63.40311 -169.15300 34080 ft 493 kts 242°
2026-05-05 23:06 63.36448 -169.28052 34080 ft 493 kts 242°
2026-05-05 23:06 63.32614 -169.40635 34083 ft 493 kts 242°
2026-05-05 23:07 63.28733 -169.53301 34076 ft 492 kts 242°
2026-05-05 23:07 63.24882 -169.65798 34094 ft 492 kts 242°
2026-05-05 23:08 63.21009 -169.78305 34090 ft 493 kts 241°
2026-05-05 23:08 63.17085 -169.90903 34081 ft 493 kts 241°
2026-05-05 23:09 63.13194 -170.03323 34084 ft 493 kts 241°
2026-05-05 23:09 63.09299 -170.15691 34089 ft 493 kts 241°
2026-05-05 23:10 63.05349 -170.28164 34094 ft 493 kts 240°
2026-05-05 23:10 63.01413 -170.40526 34097 ft 493 kts 240°
2026-05-05 23:11 62.97451 -170.52900 34100 ft 493 kts 240°
2026-05-05 23:11 62.93495 -170.65191 34100 ft 493 kts 240°
2026-05-05 23:12 62.89543 -170.77404 34102 ft 494 kts 240°
2026-05-05 23:12 62.86204 -170.87671 34105 ft 494 kts 239°
2026-05-05 23:13 62.82200 -170.99921 34102 ft 494 kts 239°
2026-05-05 23:13 62.78189 -171.12129 34107 ft 493 kts 239°
2026-05-05 23:14 62.74190 -171.24237 34108 ft 493 kts 239°
2026-05-05 23:14 62.70143 -171.36425 34103 ft 493 kts 238°
2026-05-05 23:15 62.66128 -171.48454 34109 ft 493 kts 238°
2026-05-05 23:15 62.62084 -171.60512 34106 ft 494 kts 238°
2026-05-05 23:16 62.57998 -171.72633 34112 ft 494 kts 238°
2026-05-05 23:16 62.53966 -171.84558 34109 ft 494 kts 238°
2026-05-05 23:17 62.49887 -171.96580 34118 ft 494 kts 237°
2026-05-05 23:17 62.45801 -172.08559 34122 ft 494 kts 237°
2026-05-05 23:18 62.41713 -172.20481 34120 ft 494 kts 237°
2026-05-05 23:18 62.37605 -172.32395 34102 ft 495 kts 237°
2026-05-05 23:19 62.33504 -172.44231 34115 ft 495 kts 236°
2026-05-05 23:19 62.29376 -172.56080 34114 ft 495 kts 236°
2026-05-05 23:20 62.25204 -172.67993 34117 ft 495 kts 236°
2026-05-05 23:20 62.21089 -172.79684 34122 ft 495 kts 236°
2026-05-05 23:21 62.16929 -172.91443 34122 ft 495 kts 236°
2026-05-05 23:21 62.12769 -173.03142 34127 ft 495 kts 235°
2026-05-05 23:22 62.08573 -173.14881 34126 ft 495 kts 235°
2026-05-05 23:22 62.04385 -173.26537 34129 ft 494 kts 235°
2026-05-05 23:23 62.00195 -173.38139 34127 ft 494 kts 234°
2026-05-05 23:23 61.95999 -173.49703 34134 ft 494 kts 234°
2026-05-05 23:24 61.91779 -173.61269 34132 ft 493 kts 234°
2026-05-05 23:24 61.87587 -173.72704 34136 ft 493 kts 234°
2026-05-05 23:25 61.83373 -173.84144 34132 ft 493 kts 233°
2026-05-05 23:25 61.79143 -173.95567 34136 ft 493 kts 233°
2026-05-05 23:26 61.74913 -174.06932 34139 ft 493 kts 233°
2026-05-05 23:26 61.70638 -174.18363 34135 ft 493 kts 233°
2026-05-05 23:27 61.66369 -174.29725 34146 ft 493 kts 233°
2026-05-05 23:27 61.62106 -174.41017 34143 ft 493 kts 232°
2026-05-05 23:28 61.57834 -174.52275 34139 ft 493 kts 232°
2026-05-05 23:28 61.53535 -174.63507 34135 ft 493 kts 232°
2026-05-05 23:29 61.49226 -174.74705 34146 ft 493 kts 232°
2026-05-05 23:29 61.44913 -174.85868 34149 ft 493 kts 232°
2026-05-05 23:30 61.40628 -174.96912 34142 ft 493 kts 232°
2026-05-05 23:30 61.36282 -175.08058 34147 ft 493 kts 231°
2026-05-05 23:31 61.31944 -175.19129 34148 ft 493 kts 231°
2026-05-05 23:31 61.27613 -175.30131 34148 ft 493 kts 231°
2026-05-05 23:32 61.23254 -175.41147 34161 ft 493 kts 231°
2026-05-05 23:32 61.18881 -175.52147 34147 ft 493 kts 231°
2026-05-05 23:33 61.14517 -175.63072 34147 ft 494 kts 231°
2026-05-05 23:33 61.10116 -175.74036 34162 ft 493 kts 231°
2026-05-05 23:34 61.05708 -175.84966 34155 ft 493 kts 232°
2026-05-05 23:34 61.01324 -175.95786 34161 ft 493 kts 232°
2026-05-05 23:35 60.96911 -176.06624 34160 ft 493 kts 232°
2026-05-05 23:35 60.92500 -176.17406 34161 ft 493 kts 232°
2026-05-05 23:36 60.88078 -176.28165 34162 ft 492 kts 232°
2026-05-05 23:36 60.83648 -176.38891 34167 ft 492 kts 232°
2026-05-05 23:37 60.79216 -176.49574 34165 ft 491 kts 232°
2026-05-05 23:37 60.74815 -176.60133 34166 ft 490 kts 232°
2026-05-05 23:38 60.70385 -176.70711 34168 ft 490 kts 232°
2026-05-05 23:38 60.65938 -176.81282 34173 ft 490 kts 232°
2026-05-05 23:39 60.61500 -176.91783 34167 ft 489 kts 232°
2026-05-05 23:39 60.57047 -177.02270 34174 ft 489 kts 232°
2026-05-05 23:40 60.52605 -177.12684 34171 ft 488 kts 232°
2026-05-05 23:40 60.48155 -177.23068 34172 ft 487 kts 232°
2026-05-05 23:41 60.43707 -177.33401 34172 ft 487 kts 232°
2026-05-05 23:41 60.39249 -177.43712 34178 ft 487 kts 232°
2026-05-05 23:42 60.34790 -177.53978 34176 ft 487 kts 232°
2026-05-05 23:42 60.30309 -177.64250 34172 ft 486 kts 232°
2026-05-05 23:43 60.25816 -177.74502 34180 ft 486 kts 232°
2026-05-05 23:43 60.21341 -177.84677 34176 ft 485 kts 232°
2026-05-05 23:44 60.16892 -177.94871 34177 ft 484 kts 233°
2026-05-05 23:44 60.12572 -178.05205 34183 ft 483 kts 233°
2026-05-05 23:45 60.08251 -178.15577 34177 ft 482 kts 233°
2026-05-05 23:45 60.03934 -178.25839 34179 ft 481 kts 233°
2026-05-05 23:46 59.99609 -178.36034 34176 ft 481 kts 233°
2026-05-05 23:46 59.95301 -178.46133 34178 ft 480 kts 233°
2026-05-05 23:47 59.90928 -178.56341 34180 ft 480 kts 233°
2026-05-05 23:47 59.86612 -178.66374 34180 ft 480 kts 233°
2026-05-05 23:48 59.82964 -178.74820 34179 ft 480 kts 233°
2026-05-05 23:48 59.78638 -178.84796 34176 ft 479 kts 233°
2026-05-05 23:49 59.74285 -178.94789 34170 ft 478 kts 233°
2026-05-05 23:49 59.69900 -179.04816 34180 ft 477 kts 233°
2026-05-05 23:50 59.65589 -179.14631 34172 ft 477 kts 233°
2026-05-05 23:50 59.61195 -179.24592 34176 ft 477 kts 233°
2026-05-05 23:51 59.56853 -179.34390 34167 ft 477 kts 233°
2026-05-05 23:51 59.52471 -179.44237 34167 ft 477 kts 232°
2026-05-05 23:52 59.48076 -179.54070 34170 ft 477 kts 232°
2026-05-05 23:52 59.43739 -179.63734 34172 ft 477 kts 232°
2026-05-05 23:53 59.39283 -179.73620 34171 ft 477 kts 232°
2026-05-05 23:53 59.34895 -179.83313 34174 ft 476 kts 232°
2026-05-05 23:54 59.30478 -179.93030 34168 ft 476 kts 232°
2026-05-05 23:54 59.26076 179.97326 34169 ft 477 kts 231°
2026-05-05 23:55 59.21653 179.87678 34170 ft 477 kts 231°
2026-05-05 23:55 59.17203 179.78011 34164 ft 477 kts 231°
2026-05-05 23:56 59.12756 179.68395 34163 ft 477 kts 231°
2026-05-05 23:56 59.08314 179.58827 34159 ft 476 kts 231°
2026-05-05 23:57 59.03892 179.49339 34160 ft 476 kts 230°
2026-05-05 23:57 58.99432 179.39813 34165 ft 476 kts 230°
2026-05-05 23:58 58.94960 179.30298 34168 ft 476 kts 230°
2026-05-05 23:58 58.90500 179.20850 34162 ft 476 kts 230°
2026-05-05 23:59 58.86037 179.11432 34149 ft 476 kts 230°
2026-05-05 23:59 58.81516 179.01933 34153 ft 476 kts 230°
2026-05-06 00:00 58.77056 178.92601 34149 ft 476 kts 229°
2026-05-06 00:00 58.72559 178.83230 34144 ft 475 kts 229°
2026-05-06 00:01 58.68074 178.73921 34148 ft 475 kts 229°
2026-05-06 00:01 58.63573 178.64616 34150 ft 476 kts 229°
2026-05-06 00:02 58.59062 178.55329 34144 ft 476 kts 229°
2026-05-06 00:02 58.54541 178.46061 34139 ft 477 kts 228°
2026-05-06 00:03 58.49998 178.36784 34139 ft 477 kts 228°
2026-05-06 00:03 58.45437 178.27508 34132 ft 477 kts 228°
2026-05-06 00:04 58.40885 178.18289 34131 ft 477 kts 227°
2026-05-06 00:04 58.36327 178.09094 34130 ft 477 kts 227°
2026-05-06 00:05 58.29510 177.95410 34128 ft 477 kts 227°
2026-05-06 00:06 58.24930 177.86263 34120 ft 478 kts 227°
2026-05-06 00:06 58.20330 177.77112 34118 ft 478 kts 227°
2026-05-06 00:07 58.15735 177.68006 34113 ft 478 kts 226°
2026-05-06 00:07 58.11140 177.58939 34110 ft 478 kts 226°
2026-05-06 00:08 58.06510 177.49840 34103 ft 477 kts 226°
2026-05-06 00:08 58.01926 177.40866 34107 ft 477 kts 226°
2026-05-06 00:09 57.97312 177.31868 34099 ft 477 kts 226°
2026-05-06 00:09 57.92713 177.22934 34093 ft 476 kts 226°
2026-05-06 00:10 57.88077 177.13963 34090 ft 476 kts 225°
2026-05-06 00:10 57.83443 177.05032 34090 ft 476 kts 225°
2026-05-06 00:11 57.78805 176.96129 34084 ft 477 kts 225°
2026-05-06 00:11 57.74190 176.87303 34078 ft 477 kts 225°
2026-05-06 00:12 57.69527 176.78422 34072 ft 477 kts 225°
2026-05-06 00:12 57.64870 176.69585 34064 ft 478 kts 225°
2026-05-06 00:13 57.60212 176.60780 34053 ft 478 kts 224°
2026-05-06 00:13 57.55530 176.51963 34050 ft 477 kts 224°
2026-05-06 00:14 57.50838 176.43157 34045 ft 477 kts 224°
2026-05-06 00:14 57.46182 176.34378 34050 ft 476 kts 224°
2026-05-06 00:15 57.41562 176.25574 34041 ft 476 kts 224°
2026-05-06 00:15 57.36930 176.16774 34038 ft 476 kts 224°
2026-05-06 00:16 57.32316 176.08057 34029 ft 476 kts 224°
2026-05-06 00:16 57.27678 175.99336 34024 ft 475 kts 224°
2026-05-06 00:17 57.23024 175.90621 34021 ft 475 kts 223°
2026-05-06 00:17 57.18372 175.81943 34017 ft 475 kts 223°
2026-05-06 00:18 57.13723 175.73302 34006 ft 475 kts 223°
2026-05-06 00:18 57.09060 175.64669 34001 ft 475 kts 223°
2026-05-06 00:19 57.04402 175.56075 33999 ft 475 kts 223°
2026-05-06 00:19 56.99740 175.47510 33997 ft 475 kts 222°
2026-05-06 00:20 56.95028 175.38883 33990 ft 475 kts 222°
2026-05-06 00:20 56.90341 175.30336 33983 ft 475 kts 222°
2026-05-06 00:21 56.85678 175.21862 33981 ft 475 kts 222°
2026-05-06 00:21 56.80984 175.13365 33976 ft 475 kts 221°
2026-05-06 00:22 56.76281 175.04884 33966 ft 476 kts 221°
2026-05-06 00:22 56.71563 174.96407 33975 ft 476 kts 221°
2026-05-06 00:23 56.66833 174.87940 33956 ft 477 kts 221°
2026-05-06 00:23 56.62098 174.79496 33944 ft 477 kts 221°
2026-05-06 00:24 56.57340 174.71040 33955 ft 477 kts 221°
2026-05-06 00:24 56.53392 174.64050 33936 ft 478 kts 221°
2026-05-06 00:25 56.48628 174.55642 33935 ft 479 kts 220°
2026-05-06 00:25 56.43842 174.47228 33927 ft 480 kts 220°
2026-05-06 00:26 56.39049 174.38832 33920 ft 481 kts 220°
2026-05-06 00:26 56.34234 174.30428 33911 ft 482 kts 220°
2026-05-06 00:27 56.29418 174.22054 33907 ft 484 kts 220°
2026-05-06 00:27 56.24528 174.13583 33912 ft 485 kts 220°
2026-05-06 00:28 56.19653 174.05169 33894 ft 486 kts 220°
2026-05-06 00:28 56.14788 173.96804 33974 ft 488 kts 220°
2026-05-06 00:28 56.12333 173.92595 34157 ft 487 kts 220°
2026-05-06 00:29 56.09889 173.88409 34366 ft 486 kts 220°
2026-05-06 00:29 56.07452 173.84244 34560 ft 486 kts 220°
2026-05-06 00:29 56.05002 173.80065 34749 ft 485 kts 220°
2026-05-06 00:29 56.02567 173.75920 35007 ft 482 kts 220°
2026-05-06 00:30 56.00128 173.71775 35293 ft 480 kts 220°
2026-05-06 00:30 55.97709 173.67670 35618 ft 476 kts 220°
2026-05-06 00:30 55.95324 173.63630 35884 ft 474 kts 220°
2026-05-06 00:31 55.90544 173.55562 35841 ft 469 kts 220°
2026-05-06 00:31 55.85824 173.47620 35843 ft 465 kts 219°
2026-05-06 00:32 55.81122 173.39740 35834 ft 463 kts 219°
2026-05-06 00:32 55.76405 173.31865 35833 ft 464 kts 219°
2026-05-06 00:33 55.71674 173.23989 35826 ft 467 kts 219°
2026-05-06 00:33 55.66939 173.16133 35816 ft 469 kts 219°
2026-05-06 00:34 55.62156 173.08226 35804 ft 469 kts 219°
2026-05-06 00:34 55.57398 173.00383 35792 ft 470 kts 219°